Home > Weather > Skien > Past weeks

Flag for Norway Past Weather in Skien, Norway — Yesterday and Last 2 Weeks

Now
54 °F

Broken clouds.


Feels Like: 50 °F
Forecast: 50 / 65 °F
Wind: 13 mph from Northeast

Location: Torp

Current Time: May 24, 2016 at 9:51:51 PM

Latest Report: May 24, 2016 at 9:20 PM


Visibility: N/A

Pressure: 30.07 "Hg

Humidity: 82%

Dew Point: 48 °F

Location of SkienLocation

Past Weather in Skien — Graph

°F

Skien Temperature Yesterday

Maximum temperature yesterday: 57 °F (at 12:20 PM)
Minimum temperature yesterday: 54 °F (at 12:20 AM)
Average temperature yesterday: 54 °F

High & Low Weather Summary for the Past Weeks

 TemperatureHumidityPressure
High73 °F (May 10, 12:20 PM)100% (May 12, 11:50 PM)30.21 "Hg (May 12, 11:50 PM)
Low37 °F (May 17, 5:20 AM)25% (May 10, 1:20 PM)29.62 "Hg (May 13, 6:50 PM)
Average53 °F71%29.83 "Hg
* Reported May 9 8:20 PM — May 24 8:20 PM, Skien, Weather by CustomWeather, © 2016

Note: Actual official high and low records may vary slightly from our data, if they occured in-between our weather recording intervals... More about our weather records

Advertising

Skien Weather History for the Previous 24 Hours

Scroll right to see more
 ConditionsComfort  
Time TempWeatherWind HumidityBarometerVisibility
8:20 PM
Tue, May 24
54 °FPartly sunny.14 mph88%30.07 "HgN/A
7:50 PM54 °FPartly sunny.13 mph88%30.04 "HgN/A
7:20 PM54 °FScattered clouds.15 mph94%30.04 "HgN/A
6:50 PM54 °FLight rain. Broken clouds.15 mph94%30.04 "HgN/A
6:20 PM54 °FRain showers. Broken clouds.17 mph88%30.04 "HgN/A
5:50 PM52 °FScattered showers. Partly sunny.18 mph88%30.04 "HgN/A
5:20 PM52 °FPartly sunny.20 mph88%30.04 "HgN/A
4:50 PM52 °FPartly sunny.17 mph94%30.04 "HgN/A
4:20 PM52 °FPartly sunny.21 mph88%30.04 "HgN/A
3:50 PM52 °FMore clouds than sun.21 mph94%30.04 "HgN/A
3:20 PM50 °FMore clouds than sun.16 mph100%30.04 "HgN/A
2:50 PM50 °FBroken clouds.21 mph100%30.04 "HgN/A
2:20 PM50 °FBroken clouds.18 mph100%30.04 "HgN/A
1:50 PM50 °FScattered showers. Broken clouds.15 mph100%30.04 "HgN/A
1:20 PM48 °FLight rain. Overcast.16 mph100%30.04 "HgN/A
12:50 PM48 °FLight rain. Broken clouds.15 mph100%30.04 "HgN/A
12:20 PM48 °FRain showers. Broken clouds.17 mph100%30.04 "HgN/A
11:50 AM50 °FOvercast.17 mph94%30.04 "HgN/A
11:20 AM50 °FLight rain. Overcast.17 mph94%30.04 "HgN/A
10:50 AM50 °FOvercast.18 mph94%30.01 "HgN/A
10:20 AM52 °FOvercast.20 mph88%30.01 "HgN/A
9:50 AM52 °FOvercast.16 mph88%30.01 "HgN/A
9:20 AM52 °FOvercast.18 mph88%30.01 "HgN/A
8:50 AM52 °FOvercast.20 mph88%30.01 "HgN/A
8:20 AM52 °FOvercast.18 mph94%29.98 "HgN/A
7:50 AM52 °FOvercast.17 mph94%29.98 "HgN/A
7:20 AM52 °FPartly sunny.16 mph94%29.98 "HgN/A
6:50 AM52 °FOvercast.15 mph94%29.98 "HgN/A
6:20 AM52 °FOvercast.14 mph94%29.98 "HgN/A
5:50 AM52 °FOvercast.14 mph100%29.98 "HgN/A
5:20 AM52 °FOvercast.14 mph100%29.95 "HgN/A
4:50 AM52 °FMostly cloudy.12 mph100%29.95 "HgN/A
4:20 AM54 °FMostly cloudy.9 mph100%29.95 "HgN/A
3:50 AM54 °FMostly cloudy.8 mph100%29.95 "HgN/A
3:20 AM54 °FOvercast.9 mph100%29.95 "HgN/A
2:50 AM54 °FOvercast.10 mph100%29.95 "HgN/A
2:20 AM54 °FMostly cloudy.9 mph100%29.95 "HgN/A
1:50 AM54 °FMostly cloudy.10 mph100%29.92 "Hg2 mi
1:20 AM54 °FFog.5 mph100%29.92 "Hg0 mi
12:50 AM54 °FFog.3 mph100%29.92 "Hg0 mi
12:20 AM54 °FFog.2 mph100%29.92 "Hg0 mi
11:50 PM
Mon, May 23
54 °FFog.3 mph100%29.92 "Hg0 mi
11:20 PM54 °FFog.2 mph100%29.92 "Hg0 mi
10:50 PM54 °FFog.1 mph100%29.92 "Hg0 mi
10:20 PM54 °FFog.1 mph100%29.92 "Hg0 mi
9:50 PM54 °FFog.3 mph100%29.89 "Hg0 mi
9:20 PM54 °FFog.2 mph100%29.89 "Hg1 mi
Weather by CustomWeather, © 2016

See weather overviewHow to use our weather pages